Year,Month,Day,Hour,Minute,Value (Times are PST for temperature in C)
2011,06,26,00,00,10.60
2011,06,26,00,01,10.60
2011,06,26,00,02,10.60
2011,06,26,00,03,10.50
2011,06,26,00,04,10.50
2011,06,26,00,05,10.50
2011,06,26,00,06,10.50
2011,06,26,00,07,10.40
2011,06,26,00,08,10.40
2011,06,26,00,09,10.40
2011,06,26,00,10,10.40
2011,06,26,00,11,10.40
2011,06,26,00,12,10.40
2011,06,26,00,13,10.40
2011,06,26,00,14,10.30
2011,06,26,00,15,10.30
2011,06,26,00,16,10.30
2011,06,26,00,17,10.30
2011,06,26,00,18,10.30
2011,06,26,00,19,10.30
2011,06,26,00,20,10.30
2011,06,26,00,21,10.30
2011,06,26,00,22,10.20
2011,06,26,00,23,10.20
2011,06,26,00,24,10.20
2011,06,26,00,25,10.20
2011,06,26,00,26,10.20
2011,06,26,00,27,10.20
2011,06,26,00,28,10.20
2011,06,26,00,29,10.10
2011,06,26,00,30,10.10
2011,06,26,00,31,10.10
2011,06,26,00,32,10.10
2011,06,26,00,33,10.10
2011,06,26,00,34,10.10
2011,06,26,00,35,10.10
2011,06,26,00,36,10.00
2011,06,26,00,37,10.00
2011,06,26,00,38,10.00
2011,06,26,00,39,10.00
2011,06,26,00,40,10.00
2011,06,26,00,41,9.90
2011,06,26,00,42,9.90
2011,06,26,00,43,9.90
2011,06,26,00,44,9.90
2011,06,26,00,45,9.90
2011,06,26,00,46,9.90
2011,06,26,00,47,9.90
2011,06,26,00,48,9.90
2011,06,26,00,49,9.90
2011,06,26,00,50,9.80
2011,06,26,00,51,9.80
2011,06,26,00,52,9.80
2011,06,26,00,53,9.80
2011,06,26,00,54,9.80
2011,06,26,00,55,9.80
2011,06,26,00,56,9.80
2011,06,26,00,57,9.80
2011,06,26,00,58,9.80
2011,06,26,00,59,9.70
2011,06,26,01,00,9.70
2011,06,26,01,01,9.70
2011,06,26,01,02,9.70
2011,06,26,01,03,9.70
2011,06,26,01,04,9.70
2011,06,26,01,05,9.70
2011,06,26,01,06,9.60
2011,06,26,01,07,9.60
2011,06,26,01,08,9.60
2011,06,26,01,09,9.60
2011,06,26,01,10,9.60
2011,06,26,01,11,9.60
2011,06,26,01,12,9.60
2011,06,26,01,13,9.60
2011,06,26,01,14,9.60
2011,06,26,01,15,9.60
2011,06,26,01,16,9.50
2011,06,26,01,17,9.50
2011,06,26,01,18,9.50
2011,06,26,01,19,9.40
2011,06,26,01,20,9.40
2011,06,26,01,21,9.40
2011,06,26,01,22,9.40
2011,06,26,01,23,9.40
2011,06,26,01,24,9.40
2011,06,26,01,25,9.30
2011,06,26,01,26,9.30
2011,06,26,01,27,9.30
2011,06,26,01,28,9.30
2011,06,26,01,29,9.30
2011,06,26,01,30,9.30
2011,06,26,01,31,9.30
2011,06,26,01,32,9.30
2011,06,26,01,33,9.30
2011,06,26,01,34,9.30
2011,06,26,01,35,9.20
2011,06,26,01,36,9.20
2011,06,26,01,37,9.20
2011,06,26,01,38,9.20
2011,06,26,01,39,9.20
2011,06,26,01,40,9.20
2011,06,26,01,41,9.20
2011,06,26,01,42,9.20
2011,06,26,01,43,9.20
2011,06,26,01,44,9.10
2011,06,26,01,45,9.10
2011,06,26,01,46,9.10
2011,06,26,01,47,9.10
2011,06,26,01,48,9.10
2011,06,26,01,49,9.10
2011,06,26,01,50,9.10
2011,06,26,01,51,9.10
2011,06,26,01,52,9.00
2011,06,26,01,53,9.00
2011,06,26,01,54,9.00
2011,06,26,01,55,9.00
2011,06,26,01,56,9.00
2011,06,26,01,57,9.00
2011,06,26,01,58,9.00
2011,06,26,01,59,9.00
2011,06,26,02,00,9.00
2011,06,26,02,01,9.00
2011,06,26,02,02,9.00
2011,06,26,02,03,9.00
2011,06,26,02,04,8.90
2011,06,26,02,05,8.90
2011,06,26,02,06,8.90
2011,06,26,02,07,8.90
2011,06,26,02,08,8.90
2011,06,26,02,09,8.90
2011,06,26,02,10,8.90
2011,06,26,02,11,8.90
2011,06,26,02,12,8.90
2011,06,26,02,13,8.90
2011,06,26,02,14,8.90
2011,06,26,02,15,8.90
2011,06,26,02,16,8.90
2011,06,26,02,17,8.90
2011,06,26,02,18,8.90
2011,06,26,02,19,8.90
2011,06,26,02,20,8.90
2011,06,26,02,21,8.90
2011,06,26,02,22,8.90
2011,06,26,02,23,8.80
2011,06,26,02,24,8.80
2011,06,26,02,25,8.80
2011,06,26,02,26,8.80
2011,06,26,02,27,8.80
2011,06,26,02,28,8.80
2011,06,26,02,29,8.80
2011,06,26,02,30,8.80
2011,06,26,02,31,8.80
2011,06,26,02,32,8.80
2011,06,26,02,33,8.80
2011,06,26,02,34,8.80
2011,06,26,02,35,8.80
2011,06,26,02,36,8.80
2011,06,26,02,37,8.70
2011,06,26,02,38,8.70
2011,06,26,02,39,8.70
2011,06,26,02,40,8.70
2011,06,26,02,41,8.70
2011,06,26,02,42,8.70
2011,06,26,02,43,8.70
2011,06,26,02,44,8.70
2011,06,26,02,45,8.70
2011,06,26,02,46,8.60
2011,06,26,02,47,8.60
2011,06,26,02,48,8.60
2011,06,26,02,49,8.60
2011,06,26,02,50,8.60
2011,06,26,02,51,8.60
2011,06,26,02,52,8.60
2011,06,26,02,53,8.60
2011,06,26,02,54,8.60
2011,06,26,02,55,8.60
2011,06,26,02,56,8.60
2011,06,26,02,57,8.50
2011,06,26,02,58,8.50
2011,06,26,02,59,8.50
2011,06,26,03,00,8.50
2011,06,26,03,01,8.50
2011,06,26,03,02,8.50
2011,06,26,03,03,8.50
2011,06,26,03,06,8.40
2011,06,26,03,07,8.40
2011,06,26,03,08,8.40
2011,06,26,03,09,8.40
2011,06,26,03,10,8.40
2011,06,26,03,11,8.40
2011,06,26,03,12,8.40
2011,06,26,03,13,8.40
2011,06,26,03,14,8.40
2011,06,26,03,15,8.40
2011,06,26,03,16,8.40
2011,06,26,03,17,8.40
2011,06,26,03,18,8.40
2011,06,26,03,19,8.40
2011,06,26,03,20,8.30
2011,06,26,03,21,8.30
2011,06,26,03,22,8.30
2011,06,26,03,23,8.30
2011,06,26,03,24,8.30
2011,06,26,03,25,8.30
2011,06,26,03,26,8.30
2011,06,26,03,27,8.30
2011,06,26,03,28,8.30
2011,06,26,03,29,8.30
2011,06,26,03,30,8.30
2011,06,26,03,31,8.30
2011,06,26,03,32,8.30
2011,06,26,03,33,8.30
2011,06,26,03,34,8.30
2011,06,26,03,35,8.30
2011,06,26,03,36,8.30
2011,06,26,03,37,8.30
2011,06,26,03,38,8.30
2011,06,26,03,39,8.30
2011,06,26,03,40,8.30
2011,06,26,03,41,8.30
2011,06,26,03,42,8.20
2011,06,26,03,43,8.20
2011,06,26,03,44,8.20
2011,06,26,03,45,8.20
2011,06,26,03,46,8.20
2011,06,26,03,47,8.20
2011,06,26,03,48,8.20
2011,06,26,03,49,8.20
2011,06,26,03,50,8.20
2011,06,26,03,51,8.20
2011,06,26,03,52,8.20
2011,06,26,03,53,8.20
2011,06,26,03,54,8.20
2011,06,26,03,55,8.20
2011,06,26,03,56,8.20
2011,06,26,03,57,8.20
2011,06,26,03,58,8.20
2011,06,26,03,59,8.20
2011,06,26,04,00,8.20
2011,06,26,04,01,8.20
2011,06,26,04,02,8.20
2011,06,26,04,03,8.20
2011,06,26,04,04,8.20
2011,06,26,04,05,8.20
2011,06,26,04,06,8.20
2011,06,26,04,07,8.20
2011,06,26,04,08,8.20
2011,06,26,04,09,8.20
2011,06,26,04,10,8.20
2011,06,26,04,11,8.20
2011,06,26,04,12,8.20
2011,06,26,04,13,8.20
2011,06,26,04,14,8.20
2011,06,26,04,15,8.20
2011,06,26,04,16,8.10
2011,06,26,04,17,8.10
2011,06,26,04,18,8.10
2011,06,26,04,19,8.10
2011,06,26,04,20,8.10
2011,06,26,04,21,8.10
2011,06,26,04,22,8.10
2011,06,26,04,23,8.10
2011,06,26,04,24,8.10
2011,06,26,04,25,8.10
2011,06,26,04,26,8.10
2011,06,26,04,27,8.00
2011,06,26,04,28,8.00
2011,06,26,04,29,8.00
2011,06,26,04,30,8.00
2011,06,26,04,31,8.00
2011,06,26,04,32,8.00
2011,06,26,04,33,8.00
2011,06,26,04,34,8.00
2011,06,26,04,35,8.00
2011,06,26,04,36,8.00
2011,06,26,04,37,8.00
2011,06,26,04,38,8.00
2011,06,26,04,39,8.00
2011,06,26,04,40,7.90
2011,06,26,04,41,7.90
2011,06,26,04,42,7.90
2011,06,26,04,43,7.90
2011,06,26,04,44,7.90
2011,06,26,04,45,7.90
2011,06,26,04,46,7.90
2011,06,26,04,47,7.90
2011,06,26,04,48,7.90
2011,06,26,04,49,7.90
2011,06,26,04,50,7.90
2011,06,26,04,51,7.90
2011,06,26,04,52,7.90
2011,06,26,04,53,7.90
2011,06,26,04,54,7.90
2011,06,26,04,55,7.90
2011,06,26,04,56,7.90
2011,06,26,04,57,7.90
2011,06,26,04,58,7.90
2011,06,26,04,59,7.90
2011,06,26,05,00,7.90
2011,06,26,05,01,7.90
2011,06,26,05,02,7.90
2011,06,26,05,03,7.80
2011,06,26,05,04,7.80
2011,06,26,05,05,7.80
2011,06,26,05,06,7.80
2011,06,26,05,07,7.80
2011,06,26,05,08,7.80
2011,06,26,05,09,7.80
2011,06,26,05,10,7.80
2011,06,26,05,11,7.80
2011,06,26,05,12,7.80
2011,06,26,05,13,7.80
2011,06,26,05,14,7.80
2011,06,26,05,15,7.80
2011,06,26,05,16,7.80
2011,06,26,05,17,7.80
2011,06,26,05,18,7.80
2011,06,26,05,19,7.80
2011,06,26,05,20,7.80
2011,06,26,05,21,7.70
2011,06,26,05,22,7.70
2011,06,26,05,23,7.70
2011,06,26,05,24,7.70
2011,06,26,05,25,7.70
2011,06,26,05,26,7.70
2011,06,26,05,27,7.70
2011,06,26,05,28,7.70
2011,06,26,05,29,7.70
2011,06,26,05,30,7.70
2011,06,26,05,31,7.70
2011,06,26,05,32,7.70
2011,06,26,05,33,7.70
2011,06,26,05,34,7.70
2011,06,26,05,35,7.70
2011,06,26,05,36,7.70
2011,06,26,05,37,7.70
2011,06,26,05,38,7.70
2011,06,26,05,39,7.70
2011,06,26,05,40,7.70
2011,06,26,05,41,7.70
2011,06,26,05,42,7.70
2011,06,26,05,43,7.70
2011,06,26,05,44,7.70
2011,06,26,05,45,7.70
2011,06,26,05,46,7.70
2011,06,26,05,47,7.70
2011,06,26,05,48,7.70
2011,06,26,05,49,7.70
2011,06,26,05,50,7.70
2011,06,26,05,51,7.70
2011,06,26,05,52,7.70
2011,06,26,05,53,7.70
2011,06,26,05,54,7.70
2011,06,26,05,55,7.70
2011,06,26,05,56,7.70
2011,06,26,05,57,7.70
2011,06,26,05,58,7.70
2011,06,26,05,59,7.70
2011,06,26,06,00,7.70
2011,06,26,06,01,7.70
2011,06,26,06,02,7.60
2011,06,26,06,03,7.70
2011,06,26,06,04,7.70
2011,06,26,06,05,7.70
2011,06,26,06,06,7.70
2011,06,26,06,07,7.70
2011,06,26,06,08,7.70
2011,06,26,06,09,7.70
2011,06,26,06,10,7.70
2011,06,26,06,11,7.70
2011,06,26,06,12,7.70
2011,06,26,06,13,7.70
2011,06,26,06,14,7.70
2011,06,26,06,15,7.70
2011,06,26,06,16,7.70
2011,06,26,06,17,7.70
2011,06,26,06,18,7.70
2011,06,26,06,19,7.70
2011,06,26,06,20,7.70
2011,06,26,06,21,7.70
2011,06,26,06,22,7.70
2011,06,26,06,23,7.70
2011,06,26,06,24,7.70
2011,06,26,06,25,7.80
2011,06,26,06,26,7.80
2011,06,26,06,27,7.80
2011,06,26,06,28,7.80
2011,06,26,06,29,7.80
2011,06,26,06,30,7.80
2011,06,26,06,31,7.80
2011,06,26,06,32,7.80
2011,06,26,06,33,7.90
2011,06,26,06,34,7.90
2011,06,26,06,35,7.90
2011,06,26,06,36,7.90
2011,06,26,06,37,8.00
2011,06,26,06,38,8.10
2011,06,26,06,39,8.10
2011,06,26,06,40,8.10
2011,06,26,06,41,8.10
2011,06,26,06,42,8.20
2011,06,26,06,43,8.20
2011,06,26,06,44,8.20
2011,06,26,06,45,8.20
2011,06,26,06,46,8.20
2011,06,26,06,47,8.20
2011,06,26,06,48,8.20
2011,06,26,06,49,8.20
2011,06,26,06,50,8.20
2011,06,26,06,51,8.20
2011,06,26,06,52,8.20
2011,06,26,06,53,8.20
2011,06,26,06,54,8.20
2011,06,26,06,55,8.20
2011,06,26,06,56,8.20
2011,06,26,06,57,8.20
2011,06,26,06,58,8.20
2011,06,26,06,59,8.20
2011,06,26,07,00,8.20
2011,06,26,07,01,8.20
2011,06,26,07,02,8.20
2011,06,26,07,03,8.20
2011,06,26,07,04,8.20
2011,06,26,07,05,8.20
2011,06,26,07,06,8.20
2011,06,26,07,07,8.20
2011,06,26,07,08,8.30
2011,06,26,07,09,8.30
2011,06,26,07,10,8.30
2011,06,26,07,11,8.30
2011,06,26,07,12,8.30
2011,06,26,07,13,8.30
2011,06,26,07,14,8.30
2011,06,26,07,15,8.30
2011,06,26,07,16,8.30
2011,06,26,07,17,8.30
2011,06,26,07,18,8.30
2011,06,26,07,19,8.40
2011,06,26,07,20,8.40
2011,06,26,07,21,8.40
2011,06,26,07,22,8.40
2011,06,26,07,23,8.40
2011,06,26,07,24,8.40
2011,06,26,07,25,8.40
2011,06,26,07,26,8.40
2011,06,26,07,27,8.50
2011,06,26,07,28,8.50
2011,06,26,07,29,8.50
2011,06,26,07,30,8.50
2011,06,26,07,31,8.60
2011,06,26,07,32,8.60
2011,06,26,07,33,8.60
2011,06,26,07,34,8.60
2011,06,26,07,35,8.60
2011,06,26,07,36,8.70
2011,06,26,07,37,8.70
2011,06,26,07,38,8.70
2011,06,26,07,39,8.70
2011,06,26,07,40,8.70
2011,06,26,07,41,8.70
2011,06,26,07,42,8.80
2011,06,26,07,43,8.80
2011,06,26,07,44,8.80
2011,06,26,07,45,8.80
2011,06,26,07,46,8.80
2011,06,26,07,47,8.80
2011,06,26,07,48,8.80
2011,06,26,07,49,8.80
2011,06,26,07,50,8.90
2011,06,26,07,51,8.90
2011,06,26,07,52,8.90
2011,06,26,07,53,8.90
2011,06,26,07,54,9.00
2011,06,26,07,55,9.00
2011,06,26,07,56,9.00
2011,06,26,07,57,9.00
2011,06,26,07,58,9.10
2011,06,26,07,59,9.10
2011,06,26,08,00,9.10
2011,06,26,08,01,9.10
2011,06,26,08,02,9.20
2011,06,26,08,03,9.20
2011,06,26,08,04,9.30
2011,06,26,08,05,9.30
2011,06,26,08,06,9.30
2011,06,26,08,07,9.40
2011,06,26,08,08,9.40
2011,06,26,08,09,9.50
2011,06,26,08,10,9.50
2011,06,26,08,11,9.60
2011,06,26,08,12,9.60
2011,06,26,08,13,9.60
2011,06,26,08,14,9.60
2011,06,26,08,15,9.70
2011,06,26,08,16,9.80
2011,06,26,08,17,9.80
2011,06,26,08,18,9.90
2011,06,26,08,19,10.00
2011,06,26,08,20,10.00
2011,06,26,08,21,10.10
2011,06,26,08,22,10.10
2011,06,26,08,23,10.20
2011,06,26,08,24,10.20
2011,06,26,08,25,10.30
2011,06,26,08,26,10.30
2011,06,26,08,27,10.40
2011,06,26,08,28,10.40
2011,06,26,08,29,10.50
2011,06,26,08,30,10.60
2011,06,26,08,31,10.60
2011,06,26,08,32,10.70
2011,06,26,08,33,10.70
2011,06,26,08,34,10.70
2011,06,26,08,35,10.80
2011,06,26,08,36,10.80
2011,06,26,08,37,10.80
2011,06,26,08,38,10.80
2011,06,26,08,39,10.80
2011,06,26,08,40,10.90
2011,06,26,08,41,10.90
2011,06,26,08,42,11.00
2011,06,26,08,43,11.00
2011,06,26,08,44,11.10
2011,06,26,08,45,11.10
2011,06,26,08,46,11.20
2011,06,26,08,47,11.20
2011,06,26,08,48,11.20
2011,06,26,08,49,11.30
2011,06,26,08,50,11.40
2011,06,26,08,51,11.40
2011,06,26,08,52,11.50
2011,06,26,08,53,11.50
2011,06,26,08,54,11.60
2011,06,26,08,55,11.60
2011,06,26,08,56,11.70
2011,06,26,08,57,11.70
2011,06,26,08,58,11.80
2011,06,26,08,59,11.80
2011,06,26,09,00,11.90
2011,06,26,09,01,11.90
2011,06,26,09,02,12.00
2011,06,26,09,03,12.00
2011,06,26,09,04,12.10
2011,06,26,09,05,12.20
2011,06,26,09,06,12.20
2011,06,26,09,07,12.30
2011,06,26,09,08,12.30
2011,06,26,09,09,12.30
2011,06,26,09,10,12.40
2011,06,26,09,11,12.40
2011,06,26,09,12,12.40
2011,06,26,09,13,12.50
2011,06,26,09,14,12.50
2011,06,26,09,15,12.60
2011,06,26,09,16,12.60
2011,06,26,09,17,12.70
2011,06,26,09,18,12.70
2011,06,26,09,19,12.70
2011,06,26,09,20,12.70
2011,06,26,09,21,12.80
2011,06,26,09,22,12.80
2011,06,26,09,23,12.90
2011,06,26,09,24,12.90
2011,06,26,09,25,12.90
2011,06,26,09,26,12.90
2011,06,26,09,27,13.00
2011,06,26,09,28,13.00
2011,06,26,09,29,13.10
2011,06,26,09,30,13.10
2011,06,26,09,31,13.10
2011,06,26,09,32,13.10
2011,06,26,09,33,13.10
2011,06,26,09,34,13.10
2011,06,26,09,35,13.20
2011,06,26,09,36,13.20
2011,06,26,09,37,13.20
2011,06,26,09,38,13.20
2011,06,26,09,39,13.20
2011,06,26,09,40,13.30
2011,06,26,09,41,13.30
2011,06,26,09,42,13.30
2011,06,26,09,43,13.30
2011,06,26,09,44,13.40
2011,06,26,09,45,13.40
2011,06,26,09,46,13.50
2011,06,26,09,47,13.50
2011,06,26,09,48,13.60
2011,06,26,09,49,13.60
2011,06,26,09,50,13.70
2011,06,26,09,51,13.70
2011,06,26,09,52,13.70
2011,06,26,09,53,13.80
2011,06,26,09,54,13.80
2011,06,26,09,55,13.80
2011,06,26,09,56,13.90
2011,06,26,09,57,13.90
2011,06,26,09,58,13.90
2011,06,26,09,59,14.00
2011,06,26,10,00,14.00
2011,06,26,10,01,14.00
2011,06,26,10,02,14.00
2011,06,26,10,03,14.10
2011,06,26,10,04,14.10
2011,06,26,10,05,14.10
2011,06,26,10,06,14.10
2011,06,26,10,07,14.10
2011,06,26,10,08,14.10
2011,06,26,10,09,14.10
2011,06,26,10,10,14.10
2011,06,26,10,11,14.10
2011,06,26,10,12,14.20
2011,06,26,10,13,14.20
2011,06,26,10,14,14.20
2011,06,26,10,15,14.20
2011,06,26,10,16,14.20
2011,06,26,10,17,14.20
2011,06,26,10,18,14.10
2011,06,26,10,19,14.20
2011,06,26,10,20,14.10
2011,06,26,10,21,14.20
2011,06,26,10,22,14.20
2011,06,26,10,23,14.20
2011,06,26,10,24,14.20
2011,06,26,10,25,14.20
2011,06,26,10,26,14.30
2011,06,26,10,27,14.30
2011,06,26,10,28,14.40
2011,06,26,10,29,14.40
2011,06,26,10,30,14.50
2011,06,26,10,31,14.50
2011,06,26,10,32,14.60
2011,06,26,10,33,14.60
2011,06,26,10,34,14.70
2011,06,26,10,35,14.70
2011,06,26,10,36,14.80
2011,06,26,10,37,14.90
2011,06,26,10,38,15.00
2011,06,26,10,39,15.00
2011,06,26,10,40,15.00
2011,06,26,10,41,15.00
2011,06,26,10,42,15.10
2011,06,26,10,43,15.20
2011,06,26,10,44,15.30
2011,06,26,10,45,15.40
2011,06,26,10,46,15.50
2011,06,26,10,47,15.60
2011,06,26,10,48,15.70
2011,06,26,10,49,15.80
2011,06,26,10,50,15.90
2011,06,26,10,51,16.10
2011,06,26,10,52,16.20
2011,06,26,10,53,16.30
2011,06,26,10,54,16.40
2011,06,26,10,55,16.50
2011,06,26,10,56,16.60
2011,06,26,10,57,16.70
2011,06,26,10,58,16.90
2011,06,26,10,59,17.00
2011,06,26,11,00,17.20
2011,06,26,11,01,17.30
2011,06,26,11,02,17.40
2011,06,26,11,03,17.40
2011,06,26,11,04,17.50
2011,06,26,11,05,17.50
2011,06,26,11,06,17.50
2011,06,26,11,07,17.50
2011,06,26,11,08,17.40
2011,06,26,11,09,17.40
2011,06,26,11,10,17.40
2011,06,26,11,11,17.40
2011,06,26,11,12,17.40
2011,06,26,11,13,17.40
2011,06,26,11,14,17.40
2011,06,26,11,15,17.40
2011,06,26,11,16,17.30
2011,06,26,11,17,17.30
2011,06,26,11,18,17.30
2011,06,26,11,19,17.30
2011,06,26,11,20,17.30
2011,06,26,11,21,17.20
2011,06,26,11,22,17.20
2011,06,26,11,23,17.20
2011,06,26,11,24,17.20
2011,06,26,11,25,17.10
2011,06,26,11,26,17.10
2011,06,26,11,27,17.10
2011,06,26,11,28,17.10
2011,06,26,11,29,17.00
2011,06,26,11,30,17.00
2011,06,26,11,31,17.00
2011,06,26,11,32,17.10
2011,06,26,11,33,17.10
2011,06,26,11,34,17.20
2011,06,26,11,35,17.30
2011,06,26,11,36,17.40
2011,06,26,11,37,17.60
2011,06,26,11,38,17.80
2011,06,26,11,39,17.90
2011,06,26,11,40,18.10
2011,06,26,11,41,18.20
2011,06,26,11,42,18.30
2011,06,26,11,43,18.50
2011,06,26,11,44,18.60
2011,06,26,11,45,18.70
2011,06,26,11,46,18.80
2011,06,26,11,47,18.80
2011,06,26,11,48,18.80
2011,06,26,11,49,18.90
2011,06,26,11,50,18.90
2011,06,26,11,51,18.90
2011,06,26,11,52,19.00
2011,06,26,11,53,19.10
2011,06,26,11,54,19.10
2011,06,26,11,55,19.20
2011,06,26,11,56,19.30
2011,06,26,11,57,19.30
2011,06,26,11,58,19.30
2011,06,26,11,59,19.40
2011,06,26,12,00,19.40
2011,06,26,12,01,19.50
2011,06,26,12,02,19.60
2011,06,26,12,03,19.60
2011,06,26,12,04,19.60
2011,06,26,12,05,19.60
2011,06,26,12,06,19.70
2011,06,26,12,07,19.70
2011,06,26,12,08,19.80
2011,06,26,12,09,19.90
2011,06,26,12,10,19.90
2011,06,26,12,11,20.00
2011,06,26,12,12,20.10
2011,06,26,12,13,20.10
2011,06,26,12,14,20.20
2011,06,26,12,15,20.20
2011,06,26,12,16,20.10
2011,06,26,12,17,20.10
2011,06,26,12,18,20.00
2011,06,26,12,19,20.00
2011,06,26,12,20,19.90
2011,06,26,12,21,19.90
2011,06,26,12,22,19.80
2011,06,26,12,23,19.80
2011,06,26,12,24,19.80
2011,06,26,12,25,19.80
2011,06,26,12,26,19.90
2011,06,26,12,27,20.00
2011,06,26,12,28,20.10
2011,06,26,12,29,20.10
2011,06,26,12,30,20.10
2011,06,26,12,31,20.20
2011,06,26,12,32,20.20
2011,06,26,12,33,20.30
2011,06,26,12,34,20.50
2011,06,26,12,35,20.50
2011,06,26,12,36,20.50
2011,06,26,12,37,20.60
2011,06,26,12,38,20.70
2011,06,26,12,39,20.70
2011,06,26,12,40,20.70
2011,06,26,12,41,20.70
2011,06,26,12,42,20.80
2011,06,26,12,43,20.80
2011,06,26,12,44,20.80
2011,06,26,12,45,20.80
2011,06,26,12,46,20.80
2011,06,26,12,47,20.90
2011,06,26,12,48,20.80
2011,06,26,12,49,20.80
2011,06,26,12,50,20.70
2011,06,26,12,51,20.60
2011,06,26,12,52,20.50
2011,06,26,12,53,20.50
2011,06,26,12,54,20.50
2011,06,26,12,55,20.60
2011,06,26,12,56,20.70
2011,06,26,12,57,20.70
2011,06,26,12,58,20.80
2011,06,26,12,59,20.80
2011,06,26,13,00,20.80
2011,06,26,13,01,20.90
2011,06,26,13,02,20.90
2011,06,26,13,03,20.90
2011,06,26,13,04,21.00
2011,06,26,13,05,21.00
2011,06,26,13,06,21.10
2011,06,26,13,07,21.20
2011,06,26,13,08,21.30
2011,06,26,13,09,21.30
2011,06,26,13,10,21.40
2011,06,26,13,11,21.40
2011,06,26,13,12,21.50
2011,06,26,13,13,21.60
2011,06,26,13,14,21.60
2011,06,26,13,15,21.70
2011,06,26,13,16,21.60
2011,06,26,13,17,21.50
2011,06,26,13,18,21.50
2011,06,26,13,19,21.40
2011,06,26,13,20,21.40
2011,06,26,13,21,21.40
2011,06,26,13,22,21.50
2011,06,26,13,23,21.50
2011,06,26,13,24,21.60
2011,06,26,13,25,21.60
2011,06,26,13,26,21.70
2011,06,26,13,27,21.80
2011,06,26,13,28,21.80
2011,06,26,13,29,21.90
2011,06,26,13,30,22.00
2011,06,26,13,31,21.90
2011,06,26,13,32,21.90
2011,06,26,13,33,21.80
2011,06,26,13,34,21.80
2011,06,26,13,35,21.80
2011,06,26,13,36,21.80
2011,06,26,13,37,21.80
2011,06,26,13,38,21.90
2011,06,26,13,39,21.90
2011,06,26,13,40,22.00
2011,06,26,13,41,22.00
2011,06,26,13,42,22.10
2011,06,26,13,43,22.20
2011,06,26,13,44,22.20
2011,06,26,13,45,22.30
2011,06,26,13,46,22.40
2011,06,26,13,47,22.50
2011,06,26,13,48,22.50
2011,06,26,13,49,22.50
2011,06,26,13,50,22.60
2011,06,26,13,51,22.60
2011,06,26,13,52,22.60
2011,06,26,13,53,22.60
2011,06,26,13,54,22.50
2011,06,26,13,55,22.60
2011,06,26,13,56,22.60
2011,06,26,13,57,22.60
2011,06,26,13,58,22.50
2011,06,26,13,59,22.40
2011,06,26,14,00,22.40
2011,06,26,14,01,22.40
2011,06,26,14,02,22.30
2011,06,26,14,03,22.30
2011,06,26,14,04,22.30
2011,06,26,14,05,22.20
2011,06,26,14,06,22.20
2011,06,26,14,07,22.30
2011,06,26,14,08,22.30
2011,06,26,14,09,22.40
2011,06,26,14,10,22.40
2011,06,26,14,11,22.50
2011,06,26,14,12,22.60
2011,06,26,14,13,22.60
2011,06,26,14,14,22.70
2011,06,26,14,15,22.80
2011,06,26,14,16,22.90
2011,06,26,14,17,23.00
2011,06,26,14,18,22.90
2011,06,26,14,19,22.90
2011,06,26,14,20,22.90
2011,06,26,14,21,22.90
2011,06,26,14,22,22.90
2011,06,26,14,23,22.80
2011,06,26,14,24,22.80
2011,06,26,14,25,22.80
2011,06,26,14,26,22.80
2011,06,26,14,27,22.90
2011,06,26,14,28,22.90
2011,06,26,14,29,22.90
2011,06,26,14,30,22.90
2011,06,26,14,31,23.00
2011,06,26,14,32,23.00
2011,06,26,14,33,23.00
2011,06,26,14,34,23.00
2011,06,26,14,35,22.90
2011,06,26,14,36,22.90
2011,06,26,14,37,22.80
2011,06,26,14,38,22.80
2011,06,26,14,39,22.80
2011,06,26,14,40,22.80
2011,06,26,14,41,22.80
2011,06,26,14,42,22.80
2011,06,26,14,43,22.90
2011,06,26,14,44,23.00
2011,06,26,14,45,23.00
2011,06,26,14,46,23.00
2011,06,26,14,47,23.10
2011,06,26,14,48,23.20
2011,06,26,14,49,23.30
2011,06,26,14,50,23.30
2011,06,26,14,51,23.20
2011,06,26,14,52,23.20
2011,06,26,14,53,23.20
2011,06,26,14,54,23.20
2011,06,26,14,55,23.20
2011,06,26,14,56,23.20
2011,06,26,14,57,23.20
2011,06,26,14,58,23.20
2011,06,26,14,59,23.20
2011,06,26,15,00,23.20
2011,06,26,15,01,23.20
2011,06,26,15,02,23.20
2011,06,26,15,03,23.20
2011,06,26,15,04,23.20
2011,06,26,15,05,23.20
2011,06,26,15,06,23.20
2011,06,26,15,07,23.10
2011,06,26,15,08,23.10
2011,06,26,15,09,23.00
2011,06,26,15,10,23.00
2011,06,26,15,11,23.00
2011,06,26,15,12,23.00
2011,06,26,15,13,23.00
2011,06,26,15,14,23.00
2011,06,26,15,15,22.90
2011,06,26,15,16,22.90
2011,06,26,15,17,22.80
2011,06,26,15,18,22.70
2011,06,26,15,19,22.60
2011,06,26,15,20,22.50
2011,06,26,15,21,22.40
2011,06,26,15,22,22.30
2011,06,26,15,23,22.30
2011,06,26,15,24,22.20
2011,06,26,15,25,22.10
2011,06,26,15,26,22.00
2011,06,26,15,27,21.90
2011,06,26,15,28,21.80
2011,06,26,15,29,21.80
2011,06,26,15,30,21.70
2011,06,26,15,31,21.60
2011,06,26,15,32,21.60
2011,06,26,15,33,21.50
2011,06,26,15,34,21.40
2011,06,26,15,35,21.30
2011,06,26,15,36,21.20
2011,06,26,15,37,21.10
2011,06,26,15,38,21.00
2011,06,26,15,39,21.00
2011,06,26,15,40,20.90
2011,06,26,15,41,20.90
2011,06,26,15,42,20.80
2011,06,26,15,43,20.80
2011,06,26,15,44,20.80
2011,06,26,15,45,20.80
2011,06,26,15,46,20.80
2011,06,26,15,47,20.70
2011,06,26,15,48,20.70
2011,06,26,15,49,20.70
2011,06,26,15,50,20.70
2011,06,26,15,51,20.70
2011,06,26,15,52,20.60
2011,06,26,15,53,20.60
2011,06,26,15,54,20.60
2011,06,26,15,55,20.50
2011,06,26,15,56,20.40
2011,06,26,15,57,20.40
2011,06,26,15,58,20.40
2011,06,26,15,59,20.30
2011,06,26,16,00,20.30
2011,06,26,16,01,20.30
2011,06,26,16,02,20.30
2011,06,26,16,03,20.20
2011,06,26,16,04,20.20
2011,06,26,16,05,20.20
2011,06,26,16,06,20.20
2011,06,26,16,07,20.20
2011,06,26,16,08,20.20
2011,06,26,16,09,20.30
2011,06,26,16,10,20.30
2011,06,26,16,11,20.30
2011,06,26,16,12,20.30
2011,06,26,16,13,20.40
2011,06,26,16,14,20.40
2011,06,26,16,15,20.40
2011,06,26,16,16,20.50
2011,06,26,16,17,20.50
2011,06,26,16,18,20.60
2011,06,26,16,19,20.60
2011,06,26,16,20,20.60
2011,06,26,16,21,20.60
2011,06,26,16,22,20.60
2011,06,26,16,23,20.60
2011,06,26,16,24,20.60
2011,06,26,16,25,20.70
2011,06,26,16,26,20.70
2011,06,26,16,27,20.70
2011,06,26,16,28,20.70
2011,06,26,16,29,20.70
2011,06,26,16,30,20.70
2011,06,26,16,31,20.70
2011,06,26,16,32,20.70
2011,06,26,16,33,20.60
2011,06,26,16,34,20.60
2011,06,26,16,35,20.60
2011,06,26,16,36,20.50
2011,06,26,16,37,20.50
2011,06,26,16,38,20.40
2011,06,26,16,39,20.40
2011,06,26,16,40,20.30
2011,06,26,16,41,20.30
2011,06,26,16,42,20.30
2011,06,26,16,43,20.20
2011,06,26,16,44,20.20
2011,06,26,16,45,20.20
2011,06,26,16,46,20.10
2011,06,26,16,47,20.20
2011,06,26,16,48,20.20
2011,06,26,16,49,20.20
2011,06,26,16,50,20.20
2011,06,26,16,51,20.20
2011,06,26,16,52,20.20
2011,06,26,16,53,20.20
2011,06,26,16,54,20.20
2011,06,26,16,55,20.20
2011,06,26,16,56,20.20
2011,06,26,16,57,20.20
2011,06,26,16,58,20.20
2011,06,26,16,59,20.30
2011,06,26,17,00,20.30
2011,06,26,17,01,20.30
2011,06,26,17,02,20.30
2011,06,26,17,03,20.20
2011,06,26,17,04,20.20
2011,06,26,17,05,20.30
2011,06,26,17,06,20.30
2011,06,26,17,07,20.30
2011,06,26,17,08,20.30
2011,06,26,17,09,20.30
2011,06,26,17,10,20.30
2011,06,26,17,11,20.30
2011,06,26,17,12,20.30
2011,06,26,17,13,20.30
2011,06,26,17,14,20.30
2011,06,26,17,15,20.20
2011,06,26,17,16,20.20
2011,06,26,17,17,20.20
2011,06,26,17,18,20.20
2011,06,26,17,19,20.30
2011,06,26,17,20,20.30
2011,06,26,17,21,20.30
2011,06,26,17,22,20.30
2011,06,26,17,23,20.30
2011,06,26,17,24,20.40
2011,06,26,17,25,20.40
2011,06,26,17,26,20.40
2011,06,26,17,27,20.40
2011,06,26,17,28,20.50
2011,06,26,17,29,20.50
2011,06,26,17,30,20.50
2011,06,26,17,31,20.50
2011,06,26,17,32,20.50
2011,06,26,17,33,20.60
2011,06,26,17,34,20.70
2011,06,26,17,35,20.70
2011,06,26,17,36,20.80
2011,06,26,17,37,20.80
2011,06,26,17,38,20.90
2011,06,26,17,39,20.90
2011,06,26,17,40,20.90
2011,06,26,17,41,21.00